Find Kosmos-1229

NORAD ID: 12108 Int'l Des: 1980-102 Owner: GUKOSR Country: SU operational
LEOCIRCULAR

リアルタイム位置

3D地球を読み込み中...

Kosmos-1229について

説明を読み込み中...

次回通過

Passes for default location (London). Set your location on the main map for personalized predictions.

高度履歴

Loading altitude history...

軌道要素

1 12108U 80102B 26106.05438170 .00000000 00000-0 10032-3 0 9995
2 12108 73.9904 115.6669 0032321 206.3063 185.8763 12.56122622 77619
Epoch: Apr 16, 2026 • Age: 16 hours

現在のステータス

高度 1442.8 km
速度 7.15 km/s
衛星直下点 -61.14°S, 144.83°W
打ち上げ日 Dec 23, 1980
運用期間 45.3 years
タイプ other

技術仕様

分類 Payload
質量 60.00 kg
乾燥質量 60.00 kg
総質量 60.00 kg
長さ 0.80 m
直径 0.80 m
スパン 0.80 m
形状 Poly
製造者 NPOPM
バスタイプ Strela-1 11F625
フェーズステータス In Orbit
所有者/国 GUKOSR/SU

Most Searched